Location: Chmeln�
(49.6483°N, 14.9871°E)
Time: 01:45:13
(UTC+00:00)

Cosmos 2278 Rocket - Pass Details

Date: 18 September 2020
Orbit: 841 x 845 km, 71.0° (Epoch: 24 October)

Event Time Altitude Azimuth Distance (km) Brightness Sun altitude
Exits shadow 23:04:14 19° 320° (NW) 1,933 4.4 -38.9°
Maximum altitude 23:04:33 19° 324° (NW) 1,929 4.4 -38.9°
Drops below altitude 10° 23:08:28 10° 8° (N) 2,472 5.3 -38.9°
Sets 23:11:43 0° 26° (NNE) 3,410 6.2 -38.8°
